Погода в Жлобине

Погода в Жлобине : погода сейчас, прогноз погоды и архив. Всё, что Вы хотите узнать о погоде в Жлобине!

Хотите узнать прогноз погоды в Жлобине? Тогда Вам сюда: Погода в Жлобине

Поиск расширенной информации на нашем сайте:

Другие новости

Новости СМИ2

Главная страница сайта

Новости сайта

03.07.2017

Напоминаем, что на нашем специализированном сайте Метеоцентр.Азия вы можете получить высокодетализированные автоматические прогнозы погоды по пунктам России, СНГ и мира в авиационном формате (включающие направление и скорость ветра, видимость, явления погоды, количество и форму облачности, нижнюю и верхнюю границу облачности).


Погода в Жлобине - сегодня

Время (UTC), дата Ветер
(°,м/с) 
Видим.   Явления Облачность Т
(°С)
Тd
(°С)
f(%) Тe
(°С)
Pmin
(гПа)
dP
(гПа)
Po
(мм)
O2
(г/м3)
Тmin Tmax R s Состояние
почвы
03 12.11.18 140 (ЮВ) 17000 м    10/6 600 м средняя 
[Sc|Ac As]
+0.4 -0.7 92 -2  1025.3  0.1  763  307           
06 12.11.18 150 (ЮВ) 4{10}  18000 м    10/8 600 м средняя 
[Sc|Ac As]
+0.7 -1 88 -2  1036.5  1.2  764  307  +0.4         
09 12.11.18 160 (Ю) 4{10}  19000 м    10/8 600 м средняя 
[Sc|Ac As]
+0.9 -1.4 85 -1  1036.8  0.3  764  307           
12 12.11.18 160 (Ю) 3{10}  21000 м    10/8 1000 м средняя 
[Sc|Ac As]
+1.1 -2.1 79 1037.6  0.8  765  307           
15 12.11.18 130 (ЮВ) 4{11}  23000 м    10/6 1000 м средняя 
[Sc|Ac As]
-0.7 -3.8 79 -3  1037.9  -0.2  765  309           
18 12.11.18 150 (ЮВ) 23000 м    10/6 1000 м средняя 
[Sc|Ac As]
-1.2 -4.4 79 -4  1038.1  0.2  765  310    +2.2       
21 12.11.18 160 (Ю) 5{10}  30000 м    10/8 1000 м средняя 
[Sc|Ac As]
-1.2 -4.4 79 -4  1038.3  0.2  765  310           
00 13.11.18 170 (Ю) 3{11}  28000 м    ясно 
-2.7 -4.6 87 -5  1038.6  0.4  765  312           
03 13.11.18 160 (Ю) 3{10}  30000 м    ясно 
-3.5 -4.9 90 -6  1037.8  -1.2  764  313           
06 13.11.18 180 (Ю) 25000 м    8/0 средняя, верхняя 
[Ac As|Cc]
-3.9 -6.8 80 -6  1038.5  0.7  765  313  -4         
09 13.11.18 170 (Ю) 4{11}  14000 м    8/0 средняя, верхняя 
[Ac trans|Ci fib]
-0.9 -5.9 69 -3  1036.4  -1.9  764  309           
12 13.11.18 170 (Ю) 3{10}  35000 м    8/0 средняя, верхняя 
[Ac As|Cs]
+1.2 -6.2 58 1034.8  -1.3  763  307           
15 13.11.18 150 (ЮВ) 25000 м    8/0 средняя, верхняя 
[Ac As|Cs]
-0.5 -6.1 66 -3  1033.2  -1.8  761  308           
18 13.11.18 160 (Ю) 35000 м    10/8 1000 м средняя 
[Sc|Ac As]
-1.4 -7 66 -4  1031.8  -1.5  760  309    +1.4       
21 13.11.18 170 (Ю) 35000 м    10/6 1000 м средняя 
[Sc|Ac As]
-1.8 -6.6 70 -4  1029.9  -1.8  759  308           
00 14.11.18 170 (Ю) 4-10  35000 м    8/0 средняя 
[Ac trans]
-2 -6.5 71 -5  1027  -2.9  757  308           
06 14.11.18 180 (Ю) 4-10  5000 м  слаб. снег [диам. гололёда 1 мм]  10/10 300 м 
[Frnb|Ns]
-2.1 -4.6 83 -5  1023  -1.6  754  307  -2.2    0.4  <0.5  равномерный
сухой снег
100% 
09 14.11.18 170 (Ю) 3{10}  1200 м  снег  10/10 300 м 
[Frnb|Ns]
-2.3 -3.2 94 -4  1022.1  -0.9  753  306           
12 14.11.18 180 (Ю) 5000 м  слаб. ливневой снег  10/8 300 м кучево-дожд., средняя 
[Cb cap|Ac As]
-1.7 -3.1 90 -4  1021.4  -0.7  752  305           
18 14.11.18 150 (ЮВ) 2000 м  слаб. переохл. морось (гололёд){ливн. осадки} [диам. гололёда 1 мм]  10/10 100 м 
[St]
-1.4 -1.7 98 -2  1022.1  0.7  753  305    -1.4   
21 14.11.18 120 (ЮВ) 2100 м  слаб. переохл. морось (гололёд) [диам. гололёда 2 мм]  10/10 50 м 
[St]
-1.2 -1.5 98 -1  1023.3  1.2  754  305           
00 15.11.18 тихо ()   2600 м  слаб. снег{морось} [диам. гололёда 2 мм]  10/9 100 м средняя 
[Frnb|As op]
-1.2 -1.9 95 -1  1024.6  1.3  755  306           
03 15.11.18 070 (В) 7000 м  дымка{снег} [диам. гололёда 2 мм]  10/10 100 м 
[St]
-1.3 -2.3 93 -1  1026.4  1.7  756  306      0.9   
06 15.11.18 070 (В) 6000 м  дымка{снег} [диам. гололёда 2 мм]  10/10 100 м 
[St]
-1 -1.9 94 1028.6  2.2  758  307  -1.4    равномерный
сухой снег
100% 
09 15.11.18 100 (В) 2300 м  дымка  10/10 50 м 
[St]
+0 +0 100 -1  1031  2.3  760  306           
Время (UTC), дата Ветер
(°,м/с) 
Видим.   Явления Облачность Т
(°С)
Тd
(°С)
f(%) Тe
(°С)
Pmin
(гПа)
dP
(гПа)
Po
(мм)
O2
(г/м3)
Тmin Tmax R s Состояние
почвы

Для получения пояснительной информации подведите курсор к названию столбца.

ПОГОДА в Жлобине - архив

Всё, что Вы хотите узнать о погоде в Жлобине - удобно и подробно!

Выберите нужную дату (начиная с 1 января 2015* года) и нажмите кнопку "Найти".
Будут отображены архивные сводки погоды по пункту Жлобин, начиная с указанной даты.


Отображать данные в формате CSV (для использования в таблицах Excel)


Внимание! Наш архив погоды предназначен исключительно для личного некоммерческого использования в познавательных целях. Если Вам необходимы официальные справки о состоянии погоды (для производственных, юридических, коммерческих и т.п. целей), обращайтесь в органы Росгидромета.

*Примечание: данная дата относится к архиву по метеостанциям СССР (Россия, СНГ, Балтия).
Архив по метеостанциям Зарубежной Европы и Азии (кроме Китая) хранится 10 дней, по другим регионам земного шара (Китай, Африка, Америка, Австралия, Океания) - 1 день.

Жлобин - район местоположения метеостанции


Название, широта, долгота, высота метеостанции:
Жлобин 52.9°ш. 30°д. 142 м над ур. моря [Беларусь]

Дополнительная информация

В oтличие oт бoльшинства пoгoдных сайтoв мы публикуем пoдрoбную метеoинфoрмацию в детальнoм прoфессиoнальнoм фoрмате.

Характеристики температуры и влажнoсти вoздуха измеряются на высoте 2 м в тени вдали oт зданий и деревьев.
Скoрoсть ветра измеряется на высoте 10 м (на урoвне рoста челoвека скoрoсть ветра ниже в 1.5-2 раза). Если метеoстанция нахoдится в гoрoде или в лесу, тo скoрoсть ветра занижена на 2-4 м/с пo сравнению с oткрытым местoм. Скoрoсть ветра над акватoриями крупных рек и oзёр, а также на вершинах хoлмoв на 2-5 м/с выше, чем в oбычных услoвиях.
Атмoсфернoе давление в разных тoчках местнoсти мoжет значительнo oтличаться oт давления на метеoстанции, в зависимoсти oт услoвий рельефа (при пoдъёме на 10 м давление пoнижается примернo на 1 мм рт.ст.).